Satellite-Ground Cal/Val Region Overpasses Predictions

Prediction of Satellite NPP Overpassing Cal/Val Region: PacNW

Region Location: (Latitude: 10.00, Longitude: 139.50) to (Latitude: 22.70, Longitude: 165.60).

Table of predicted overpasses for the next 14.0 days since TLE Epoch: 6/1/2012
Interval Starting Time Starting Location Ending Time Ending Location
1 06/01/2012 14:57:05 ( 22.69, 160.27) 06/01/2012 15:00:41 ( 10.01, 157.25)
2 06/02/2012 02:08:49 ( 19.41, 165.59) 06/02/2012 02:09:45 ( 22.69, 164.79)
3 06/02/2012 03:47:39 ( 10.02, 142.42) 06/02/2012 03:51:08 ( 22.29, 139.51)
4 06/02/2012 14:38:02 ( 22.66, 165.02) 06/02/2012 14:41:37 ( 10.04, 162.02)
5 06/02/2012 16:19:32 ( 22.65, 139.64) 06/02/2012 16:19:41 ( 22.12, 139.51)
6 06/03/2012 03:28:37 ( 10.05, 147.18) 06/03/2012 03:32:12 ( 22.67, 144.18)
7 06/03/2012 16:00:29 ( 22.68, 144.41) 06/03/2012 16:04:05 ( 10.00, 141.40)
8 06/04/2012 03:09:33 ( 10.02, 151.94) 06/04/2012 03:13:08 ( 22.64, 148.94)
9 06/04/2012 15:41:26 ( 22.65, 149.16) 06/04/2012 15:45:01 ( 10.03, 146.17)
10 06/05/2012 02:50:31 ( 10.05, 156.70) 06/05/2012 02:54:06 ( 22.67, 153.70)
11 06/05/2012 15:22:23 ( 22.68, 153.93) 06/05/2012 15:25:59 ( 10.00, 150.92)
12 06/06/2012 02:31:28 ( 10.02, 161.46) 06/06/2012 02:35:03 ( 22.65, 158.47)
13 06/06/2012 15:03:20 ( 22.65, 158.69) 06/06/2012 15:06:55 ( 10.03, 155.69)
14 06/07/2012 02:13:11 ( 12.76, 165.60) 06/07/2012 02:16:00 ( 22.68, 163.22)
15 06/07/2012 03:53:54 ( 10.01, 140.85) 06/07/2012 03:55:33 ( 15.82, 139.51)
16 06/07/2012 14:44:17 ( 22.68, 163.45) 06/07/2012 14:47:52 ( 10.06, 160.45)
17 06/08/2012 03:34:52 ( 10.04, 145.61) 06/08/2012 03:38:27 ( 22.66, 142.61)
18 06/08/2012 14:28:20 ( 11.73, 165.60) 06/08/2012 14:28:49 ( 10.03, 165.21)
19 06/08/2012 16:06:43 ( 22.69, 142.84) 06/08/2012 16:10:19 ( 10.01, 139.83)
20 06/09/2012 03:15:48 ( 10.01, 150.38) 06/09/2012 03:19:24 ( 22.70, 147.36)
21 06/09/2012 15:47:41 ( 22.66, 147.60) 06/09/2012 15:51:16 ( 10.04, 144.60)
22 06/10/2012 02:56:46 ( 10.05, 155.13) 06/10/2012 03:00:21 ( 22.67, 152.13)
23
